Showing default

PAKTES 1A, 43529

Orbit data source: Space-Track

PAKTES 1A, 43529 is a payload satellite owned by SUPARCO (PK) in SSO that was launched on Mon, 09 Jul 2018 UTC via a CHANG ZHENG 2C launch vehicle from the Jiuquan Satellite Launch Center, China (JSC). Payload-class satellites include a variety of spacecraft equipped with specific instruments for various scientific and technological missions. These include communications satellites like Starlink; space stations such as the ISS; scientific satellites like the Hubble; Earth observation satellites from companies like Planet Labs, Umbra, and HawkEye 360; GPS; miniature CubeSats for education and research; and military/defense satellites.

Loading next visibility...
Identifier
43529, 2018-056A
Orbit
SSO
Country
Flag of UnknownUnknown / PAKI
Related business
Manufacturer
SUPARCO
Mission
Operational Civil Imaging
Bus & Motor
PAKTES, Unknown motor
Mass
285 kg wet, 285 kg dry
Launch date (UTC)
2018-07-09 (8 years ago)
Launch vehicle
CHANG ZHENG 2C
Launch site
Jiuquan Satellite Launch Center, China (JSC)
Object type
Payload
Rocket body
Debris
Shape & HBR
Box + 1 Pan, 2.0 m
Radar Cross Section
5.935 m², Large (>1 m²)

Expand to show TLE details & history
Last TLE update: 4 hours ago

TLE from 4 hours ago
0 PAKTES 1A
1 43529U 18056A   26037.34786940  .00004374  00000-0  37108-3 0  9992
2 43529  98.1056 188.4781 0021815 183.3034 176.8047 14.98314336412327
Epoch: 2026-02-06T08:20Z
TLE epoch observation values (Epoch: 2026-02-06T08:20:55.916Z)
Latitude
0.00002°
Longitude
-73.24193°
Altitude
590.286 km
Speed
7.557 km/s
True Right ascension
12h 33m 54s
True Declination
0° 00' 00"
Sunlit
Object was in full shadow at epoch
Visualization orbit readout
Latitude
Unknown
Longitude
Unknown
Altitude
Unknown
Speed
Unknown
Apparent Right ascension
Unknown
Apparent Declination
Unknown
Sunlit
N/A
Visualization observer readout
Local Sidereal Time
14:20:41
Azimuth
Unknown
Elevation
Unknown
Doppler factor
Unknown
Orbital elements
Apogee altitude
584.286 km
Perigee altitude
553.975 km
Semi-major axis
6,947.267 km
Eccentricity
0.00218
Inclination
98.1056°
RAAN
188.4781°
Arg. of periapsis
183.3034°
True anomaly
176.8186°
Mean anomaly
176.8047°
Eccentric anomaly
176.81165°
Mean motion
3.74819 °/min
Orbital period
96.05 mins
BSTAR
0.00037108
Loading maneuver chart data...
Computing Atmospheric mass density...
Loading historical data...
Loading historical data...
Loading historical data...
Loading historical data...
Loading historical data...
Loading historical data...
Loading historical data...

Documentation

Showing up to 5 results
|